Date_and_time,latitude,longitude,wind_speed,RelWindDirFrom,WindDirFrom,air_pressure,air_temperature,relative_humidity,Temp,platform_speed_wrt_ground,air_pressure_at_mean_sea_level,platform_orientation
2019-11-16 23:40,50.63046,-96.9807716666667,5.4,7.5,237,978.69,3.1,86,1.23,0.0,1005.97,360.0
2019-11-16 23:50,50.63046,-96.9807666666667,6.3,10.3,253,978.78,3.1,87,1.24,0.0,1006.07,360.0
2019-11-17 00:00,50.6304666666667,-96.98078,6.9,9.7,256,978.96,3.1,87,1.24,0.0,1006.25,317.0
2019-11-17 00:10,50.630465,-96.98077,6.8,10.4,266,979.02,3.0,91,1.26,0.0,1006.31,317.0
2019-11-17 00:20,50.630465,-96.98077,5.9,8.4,267,979.18,2.6,98,1.27,0.0,1006.50,317.0
2019-11-17 00:30,50.6304633333333,-96.9807683333333,6.0,9.6,270,979.40,2.4,99,1.28,0.0,1006.74,317.0
2019-11-17 00:40,50.6304616666667,-96.9807683333333,5.8,10.2,278,979.50,2.1,100,1.28,0.0,1006.86,317.0
2019-11-17 00:50,50.6304616666667,-96.9807683333333,6.2,10.2,286,979.60,2.0,100,1.29,0.0,1006.97,317.0
2019-11-17 01:00,50.63046,-96.980765,7.7,12.3,292,979.64,1.8,100,1.30,0.0,1007.01,167.4
2019-11-17 01:10,50.6304566666667,-96.980765,8.8,13.4,299,979.72,1.7,100,1.30,0.0,1007.10,167.4
2019-11-17 01:20,50.63044,-96.9807316666667,7.8,11.8,296,979.94,1.5,100,1.31,0.0,1007.35,167.4
2019-11-17 01:30,50.630455,-96.9807566666667,10.0,14.8,304,979.97,1.3,100,1.31,0.0,1007.39,167.4
2019-11-17 01:40,50.6304566666667,-96.9807583333333,9.9,16.0,305,980.12,1.2,100,1.31,0.0,1007.55,167.4
2019-11-17 01:50,50.630455,-96.9807583333333,9.1,14.7,299,980.22,1.1,100,1.31,0.0,1007.65,167.4
2019-11-17 02:00,50.6304533333333,-96.9807583333333,8.2,12.7,298,980.34,1.0,100,1.32,0.0,1007.79,167.4
2019-11-17 02:10,50.6304516666667,-96.9807566666667,8.1,11.8,294,980.47,0.9,100,1.32,0.0,1007.94,167.4
2019-11-17 02:20,50.6304516666667,-96.9807583333333,8.3,12.9,310,980.48,0.9,100,1.32,0.0,1007.97,167.4
2019-11-17 02:30,50.6304533333333,-96.9807583333333,11.5,17.9,311,980.54,0.5,100,1.32,0.0,1008.06,167.4
2019-11-17 02:40,50.6304583333333,-96.9807683333333,11.6,16.9,315,980.74,0.1,99,1.32,0.0,1008.30,167.4
2019-11-17 02:50,50.6304533333333,-96.9807916666667,10.4,16.7,309,980.95,-0.1,99,1.33,0.0,1008.53,167.4
2019-11-17 03:00,50.6304583333333,-96.98077,10.4,15.9,305,980.97,-0.1,99,1.33,0.0,1008.56,130.6
2019-11-17 03:10,50.6304466666667,-96.9807633333333,12.3,20.8,305,980.95,-0.1,96,1.33,0.0,1008.55,130.6
2019-11-17 03:20,50.63045,-96.9807633333333,11.0,17.2,308,981.19,-0.2,95,1.34,0.0,1008.80,130.6
2019-11-17 03:30,50.63045,-96.9807633333333,9.2,13.9,300,981.44,-0.3,97,1.34,0.0,1009.08,130.6
2019-11-17 03:40,50.63045,-96.9807616666667,8.0,13.6,294,981.70,-0.5,99,1.35,0.0,1009.35,130.6
2019-11-17 03:50,50.6304516666667,-96.9807633333333,11.0,15.7,295,981.78,-0.6,96,1.35,0.0,1009.45,130.6
2019-11-17 04:00,50.6304516666667,-96.980765,10.9,17.2,297,981.95,-0.8,92,1.35,0.0,1009.64,142.0
2019-11-17 04:10,50.6304516666667,-96.9807633333333,10.6,14.9,300,982.12,-0.8,91,1.35,0.0,1009.82,142.0
2019-11-17 04:20,50.6304533333333,-96.9807616666667,11.3,17.9,296,982.29,-0.9,92,1.35,0.0,1010.01,142.0
2019-11-17 04:30,50.6304533333333,-96.9807633333333,12.8,21.1,291,982.34,-1.0,92,1.35,0.0,1010.09,142.0
2019-11-17 04:40,50.630455,-96.9807616666667,11.1,17.9,298,982.60,-1.1,93,1.34,0.0,1010.37,142.0
2019-11-17 04:50,50.6304533333333,-96.98076,12.9,20.3,297,982.72,-1.3,91,1.34,0.0,1010.52,142.0
2019-11-17 05:00,50.630455,-96.9807616666667,13.1,19.5,296,982.96,-1.6,89,1.34,0.0,1010.78,0.0
2019-11-17 05:10,50.630455,-96.9807616666667,13.6,21.4,301,983.00,-1.9,91,1.32,0.0,1010.83,0.0
2019-11-17 05:20,50.6304533333333,-96.98076,9.4,15.0,302,983.23,-2.0,92,1.30,0.0,1011.08,0.0
2019-11-17 05:30,50.6304366666667,-96.9807383333333,9.4,17.0,294,983.25,-2.1,92,1.29,0.0,1011.11,0.0
2019-11-17 05:40,50.630445,-96.980765,11.6,19.6,305,983.30,-2.3,89,1.26,0.0,1011.18,0.0
2019-11-17 05:50,50.6304766666667,-96.9807883333333,11.8,18.0,303,983.44,-2.4,87,1.25,0.0,1011.35,0.0
2019-11-17 06:00,50.63045,-96.9807633333333,11.5,16.0,300,983.60,-2.6,86,1.26,0.0,1011.52,142.0
2019-11-17 06:10,50.63045,-96.9807633333333,10.2,15.7,292,983.91,-2.7,87,1.25,0.0,1011.85,142.0
2019-11-17 06:20,50.63045,-96.9807666666667,11.4,19.4,296,984.08,-3.0,87,1.26,0.0,1012.04,142.0
2019-11-17 06:30,50.6304516666667,-96.9807716666667,11.4,17.3,302,984.21,-3.1,86,1.27,0.0,1012.19,142.0
2019-11-17 06:40,50.6304516666667,-96.9807716666667,14.6,22.0,307,984.09,-3.2,84,1.26,0.0,1012.09,142.0
2019-11-17 06:50,50.6304533333333,-96.98077,10.5,17.6,306,984.37,-3.3,83,1.27,0.0,1012.39,142.0
2019-11-17 07:00,50.6304533333333,-96.9807683333333,12.6,21.4,301,984.26,-3.4,84,1.28,0.0,1012.30,90.0
2019-11-17 07:10,50.6304533333333,-96.9807683333333,12.8,18.7,311,984.31,-3.6,82,1.28,0.0,1012.36,90.0
2019-11-17 07:20,50.6304533333333,-96.9807683333333,13.0,19.2,307,984.34,-3.7,83,1.30,0.0,1012.41,90.0
2019-11-17 07:30,50.630455,-96.9807666666667,13.2,20.4,304,984.38,-3.8,83,1.29,0.0,1012.46,90.0
2019-11-17 07:40,50.630455,-96.980765,12.1,21.2,307,984.54,-3.9,83,1.27,0.0,1012.63,90.0
2019-11-17 07:50,50.6304566666667,-96.980765,13.6,19.2,306,984.48,-3.9,82,1.27,0.0,1012.58,90.0
2019-11-17 08:00,50.6304583333333,-96.980765,14.2,21.8,302,984.52,-3.9,82,1.28,0.0,1012.64,347.4
2019-11-17 08:10,50.6304566666667,-96.9807633333333,13.0,20.9,309,984.69,-4.0,83,1.28,0.0,1012.82,347.4
2019-11-17 08:20,50.6304516666667,-96.98074,12.6,18.5,309,984.83,-4.1,83,1.29,0.0,1012.98,347.4
2019-11-17 08:30,50.6304516666667,-96.9807383333333,11.8,18.0,313,984.76,-4.1,83,1.30,0.0,1012.92,347.4
2019-11-17 08:40,50.6304633333333,-96.9807766666667,12.8,20.1,308,984.82,-4.2,83,1.30,0.0,1012.99,347.4
2019-11-17 08:50,50.6304616666667,-96.9807666666667,12.3,19.2,308,984.83,-4.2,83,1.31,0.0,1013.00,347.4
2019-11-17 09:00,50.6304616666667,-96.9807666666667,11.3,16.1,308,984.89,-4.3,84,1.31,0.0,1013.09,360.0
2019-11-17 09:10,50.63046,-96.9807666666667,7.6,13.1,302,985.19,-4.3,85,1.31,0.0,1013.39,360.0
2019-11-17 09:20,50.63046,-96.9807583333333,11.2,17.5,302,985.07,-4.3,85,1.31,0.0,1013.28,360.0
2019-11-17 09:30,50.63046,-96.980765,10.9,16.1,306,985.18,-4.4,86,1.31,0.0,1013.40,360.0
2019-11-17 09:40,50.63046,-96.9807616666667,10.4,18.2,303,985.31,-4.4,87,1.30,0.0,1013.53,360.0
2019-11-17 09:50,50.63048,-96.9807716666667,10.5,16.5,303,985.27,-4.5,87,1.30,0.0,1013.50,360.0
2019-11-17 10:00,50.6304583333333,-96.9807583333333,10.4,15.4,300,985.40,-4.5,87,1.31,0.0,1013.64,12.6
2019-11-17 10:10,50.6304583333333,-96.980765,11.9,18.7,305,985.38,-4.6,88,1.31,0.0,1013.62,12.6
2019-11-17 10:20,50.6304566666667,-96.9807683333333,8.6,14.9,303,985.47,-4.6,88,1.31,0.0,1013.72,12.6
2019-11-17 10:30,50.6304566666667,-96.9807716666667,11.4,16.6,305,985.38,-4.6,87,1.30,0.0,1013.63,12.6
2019-11-17 10:40,50.6304516666667,-96.98077,10.5,16.3,305,985.47,-4.5,86,1.29,0.0,1013.73,12.6
2019-11-17 10:50,50.6304566666667,-96.98078,10.6,16.2,307,985.53,-4.5,84,1.28,0.0,1013.79,12.6
2019-11-17 11:00,50.6304583333333,-96.9807783333333,11.1,17.5,307,985.61,-4.5,83,1.28,0.0,1013.87,270.0
2019-11-17 11:10,50.630455,-96.980775,11.2,17.5,306,985.75,-4.5,83,1.29,0.0,1014.01,270.0
2019-11-17 11:20,50.630455,-96.980775,10.2,15.2,308,985.86,-4.5,83,1.29,0.0,1014.14,270.0
2019-11-17 11:30,50.630455,-96.9807766666667,12.2,18.3,306,985.90,-4.5,83,1.29,0.0,1014.18,270.0
2019-11-17 11:40,50.6304333333333,-96.9807683333333,8.4,14.1,305,986.12,-4.5,84,1.29,0.0,1014.41,270.0
2019-11-17 11:50,50.6304533333333,-96.9807866666667,8.6,13.6,307,986.22,-4.5,85,1.30,0.0,1014.51,270.0
2019-11-17 12:00,50.6304666666667,-96.9807816666667,8.9,14.2,310,986.23,-4.5,86,1.29,0.0,1014.52,291.5
2019-11-17 12:10,50.630445,-96.980785,7.9,12.6,310,986.14,-4.6,86,1.28,0.0,1014.43,291.5
2019-11-17 12:20,50.6304466666667,-96.9807816666667,6.6,13.7,311,986.12,-4.6,86,1.27,0.0,1014.41,291.5
2019-11-17 12:30,50.6304483333333,-96.9807816666667,7.8,11.3,312,986.09,-4.6,86,1.24,0.0,1014.38,291.5
2019-11-17 12:40,50.6304483333333,-96.9807783333333,8.3,13.5,312,986.04,-4.6,85,1.21,0.0,1014.33,291.5
2019-11-17 12:50,50.6304466666667,-96.9807766666667,8.3,12.8,309,985.99,-4.6,86,1.13,0.0,1014.27,291.5
2019-11-17 13:00,50.630435,-96.9807933333333,6.5,9.6,310,986.16,-4.6,86,1.07,0.0,1014.45,229.4
2019-11-17 13:10,50.63044,-96.9807766666667,7.2,12.5,305,986.30,-4.6,87,1.02,0.0,1014.60,229.4
2019-11-17 13:20,50.63044,-96.9807766666667,7.4,11.7,304,986.49,-4.7,89,0.98,0.0,1014.80,229.4
2019-11-17 13:30,50.6304416666667,-96.9807733333333,7.2,12.2,292,986.59,-4.8,91,0.96,0.0,1014.91,229.4
2019-11-17 13:40,50.6304433333333,-96.9807633333333,6.2,11.8,295,986.66,-4.8,92,0.93,0.0,1014.98,229.4
2019-11-17 13:50,50.630445,-96.9807633333333,6.7,10.9,293,986.69,-4.7,91,0.92,0.0,1015.00,229.4
2019-11-17 14:00,50.630445,-96.9807633333333,8.6,14.4,299,986.63,-4.7,91,0.90,0.0,1014.94,148.9
2019-11-17 14:10,50.6304466666667,-96.9807666666667,7.4,11.7,298,986.63,-4.7,90,0.90,0.0,1014.94,148.9
2019-11-17 14:20,50.630445,-96.9807666666667,8.0,12.3,293,986.66,-4.7,90,0.90,0.0,1014.97,148.9
2019-11-17 14:30,50.6304466666667,-96.9807666666667,7.3,11.9,293,986.57,-4.6,91,0.90,0.0,1014.88,148.9
2019-11-17 14:40,50.6304466666667,-96.9807683333333,8.2,11.7,299,986.55,-4.6,91,0.90,0.0,1014.86,148.9
2019-11-17 14:50,50.6304466666667,-96.9807683333333,7.9,11.4,293,986.75,-4.6,90,0.90,0.0,1015.07,148.9
2019-11-17 15:00,50.630455,-96.980785,8.0,12.2,306,986.73,-4.6,90,0.90,0.0,1015.04,360.0
2019-11-17 15:10,50.63045,-96.9807766666667,8.0,11.3,305,986.87,-4.5,89,0.89,0.0,1015.19,360.0
2019-11-17 15:20,50.6304516666667,-96.98077,8.4,12.3,299,986.92,-4.5,88,0.89,0.0,1015.25,360.0
2019-11-17 15:30,50.6304516666667,-96.98077,6.2,9.2,307,986.92,-4.4,88,0.89,0.0,1015.24,360.0
2019-11-17 15:40,50.6304516666667,-96.9807683333333,5.2,9.0,311,986.81,-4.4,88,0.90,0.0,1015.13,360.0
2019-11-17 15:50,50.63045,-96.9807683333333,6.8,10.1,318,986.73,-4.4,88,0.90,0.0,1015.04,360.0
2019-11-17 16:00,50.63045,-96.9807683333333,6.0,9.3,315,986.76,-4.3,88,0.91,0.0,1015.06,50.9
2019-11-17 16:10,50.63045,-96.9807666666667,6.4,8.7,311,986.71,-4.3,87,0.90,0.0,1015.01,50.9
2019-11-17 16:20,50.6304516666667,-96.98078,6.1,8.9,311,986.60,-4.3,88,0.90,0.0,1014.90,50.9
2019-11-17 16:30,50.630455,-96.98076,5.2,7.6,300,986.50,-4.3,88,0.90,0.0,1014.79,50.9
2019-11-17 16:40,50.63045,-96.98076,4.7,7.6,307,986.46,-4.2,88,0.90,0.0,1014.75,50.9
2019-11-17 16:50,50.6304516666667,-96.98077,4.9,7.2,319,986.45,-4.1,87,0.89,0.0,1014.73,50.9
2019-11-17 17:00,50.6304516666667,-96.98077,4.7,7.3,315,986.37,-4.1,87,0.89,0.0,1014.65,360.0
2019-11-17 17:10,50.6304533333333,-96.9807683333333,4.3,7.2,320,986.27,-4.0,87,0.89,0.0,1014.54,360.0
2019-11-17 17:20,50.630455,-96.9807666666667,4.0,6.5,299,986.23,-4.1,87,0.89,0.0,1014.49,360.0
2019-11-17 17:30,50.630455,-96.9807666666667,3.7,5.6,324,986.10,-3.9,87,0.89,0.0,1014.35,360.0
2019-11-17 17:40,50.6304466666667,-96.9807616666667,4.5,6.3,335,985.98,-3.8,87,0.89,0.0,1014.22,360.0
2019-11-17 17:50,50.63045,-96.9807666666667,3.6,5.7,312,985.85,-3.9,86,0.90,0.0,1014.09,360.0
2019-11-17 18:00,50.630455,-96.98077,3.5,5.8,311,985.87,-3.8,85,0.89,0.0,1014.10,90.0
2019-11-17 18:10,50.630455,-96.9807733333333,3.3,4.9,303,985.85,-3.8,85,0.88,0.0,1014.08,90.0
2019-11-17 18:20,50.6304566666667,-96.980775,3.3,5.6,297,985.84,-3.7,84,0.88,0.0,1014.07,90.0
2019-11-17 18:30,50.6304566666667,-96.980775,3.2,5.6,270,985.82,-3.7,85,0.88,0.0,1014.04,90.0
2019-11-17 18:40,50.6304583333333,-96.9807733333333,3.9,5.6,268,985.63,-3.7,85,0.88,0.0,1013.83,90.0
2019-11-17 18:50,50.6304566666667,-96.9807766666667,4.3,5.9,276,985.51,-3.6,84,0.89,0.0,1013.71,90.0
2019-11-17 19:00,50.6304616666667,-96.98077,3.8,6.1,262,985.52,-3.6,84,0.90,0.0,1013.72,360.0
2019-11-17 19:10,50.6304616666667,-96.98077,3.0,4.8,253,985.43,-3.5,84,0.91,0.0,1013.62,360.0
2019-11-17 19:20,50.630455,-96.9807433333333,2.9,5.0,276,985.35,-3.4,84,0.92,0.0,1013.52,360.0
2019-11-17 19:30,50.630455,-96.9807566666667,4.1,6.2,279,985.13,-3.3,83,0.92,0.0,1013.29,360.0
2019-11-17 19:40,50.630455,-96.9807633333333,3.1,5.5,272,984.97,-3.3,83,0.93,0.0,1013.13,360.0
2019-11-17 19:50,50.6304583333333,-96.9807633333333,1.1,2.9,284,984.74,-3.2,82,0.93,0.0,1012.88,360.0
2019-11-17 20:00,50.6304583333333,-96.9807633333333,2.4,3.8,283,984.72,-3.1,83,0.94,0.0,1012.86,38.0
2019-11-17 20:10,50.6304566666667,-96.9807666666667,1.4,2.7,259,984.79,-3.2,84,0.94,0.0,1012.92,38.0
2019-11-17 20:20,50.6304566666667,-96.9807666666667,1.4,3.4,261,984.57,-3.1,84,0.94,0.0,1012.70,38.0
2019-11-17 20:30,50.6304566666667,-96.980765,1.9,3.9,207,984.30,-3.2,85,0.94,0.0,1012.42,38.0
2019-11-17 20:40,50.6304566666667,-96.980765,2.3,3.2,193,984.06,-3.4,86,0.94,0.0,1012.18,38.0
2019-11-17 20:50,50.6304566666667,-96.9807616666667,0.5,2.2,216,983.94,-3.3,86,0.95,0.0,1012.05,38.0
2019-11-17 21:00,50.6304583333333,-96.9807616666667,2.7,3.7,183,983.94,-3.3,87,0.95,0.0,1012.05,12.6
2019-11-17 21:10,50.6304583333333,-96.9807616666667,2.6,4.2,207,983.85,-3.3,88,0.96,0.0,1011.95,12.6
2019-11-17 21:20,50.6304733333333,-96.9807716666667,1.9,2.8,186,983.81,-3.4,88,0.96,0.0,1011.90,12.6
2019-11-17 21:30,50.6304683333333,-96.9807683333333,3.7,4.8,164,983.63,-3.4,88,0.97,0.0,1011.72,12.6
2019-11-17 21:40,50.6304666666667,-96.9807716666667,3.8,5.2,160,983.48,-3.4,88,0.97,0.0,1011.56,12.6
2019-11-17 21:50,50.6304633333333,-96.98077,4.9,6.6,138,983.33,-3.1,89,0.97,0.0,1011.39,12.6
2019-11-17 22:00,50.63045,-96.9807883333333,5.5,7.4,138,983.15,-3.1,90,0.97,0.0,1011.20,237.7
2019-11-17 22:10,50.630455,-96.980785,6.1,7.5,147,983.07,-3.3,90,0.97,0.0,1011.13,237.7
2019-11-17 22:20,50.630455,-96.980775,5.3,6.7,156,983.19,-3.3,91,0.98,0.0,1011.26,237.7
2019-11-17 22:30,50.630455,-96.980775,5.6,6.8,155,983.16,-3.2,91,0.98,0.0,1011.23,237.7
2019-11-17 22:40,50.6304533333333,-96.9807733333333,6.0,7.7,162,983.24,-3.2,92,0.98,0.0,1011.32,237.7
2019-11-17 22:50,50.630455,-96.980775,6.4,8.6,166,983.09,-3.2,92,0.98,0.0,1011.16,237.7
2019-11-17 23:00,50.630455,-96.980775,6.7,8.1,157,982.81,-3.2,94,0.98,0.0,1010.87,192.6
2019-11-17 23:10,50.630455,-96.980775,8.0,9.7,151,982.71,-3.2,95,0.98,0.0,1010.77,192.6
2019-11-17 23:20,50.630455,-96.9807733333333,8.1,9.5,168,982.77,-3.1,95,0.98,0.0,1010.83,192.6
2019-11-17 23:30,50.630455,-96.9807733333333,7.4,8.8,173,982.75,-3.1,96,0.96,0.0,1010.81,192.6
2019-11-17 23:40,50.6304533333333,-96.9807766666667,7.9,10.3,167,982.72,-3.2,97,0.97,0.0,1010.77,192.6
